Location: Peebles
(55.6412°N, 3.1714°W)
Time: 11:56:28
(UTC+01:00)

NOAA 16 DEB - Pass Details

Date: 04 July 2022
Orbit: 830 x 847 km, 98.8° (Epoch: 13 August)

Event Time Altitude Azimuth Distance (km) Brightness Sun altitude
Exits shadow 23:27:29 - 188° (S) 2,919 ? -8.1°
Reaches altitude 10° 23:28:47 10° 193° (SSW) 2,436 ? -8.2°
Maximum altitude 23:33:52 41° 263° (W) 1,193 ? -8.5°
Drops below altitude 10° 23:39:00 10° 333° (NNW) 2,460 ? -8.8°
Sets 23:41:32 0° 341° (NNW) 3,401 ? -8.9°
